Weather in Kutarbitka

Russia / Tyumen Oblast     57°50′02″N   67°58′38″E
temp.,
°C
wind,
m/s
gust,
m/s
humid.,
%
clouds,
%
prec.,
mm/h
press.,
hPa
HPBL,
m
8 may, sat
sat823:00+12sw395719 0.0 1018143
02:00+13sw4115036 0.0 1018251
05:00+10sw39635 0.0 1019163
08:00+17wsw474114 0.0 1018368
11:00+22wsw34285 0.0 10182071
14:00+24wsw23235 0.0 10172810
17:00+24sw1122100 0.0 10162991
20:00+19sse1134100 0.0 101611
9 may, sun
sun923:00+15e1244100 0.0 101639
02:00+13e365764 0.0 1017123
05:00+12e4107149 0.0 1018263
08:00+17ese484992 0.0 1019515
11:00+20e563677 0.0 10191135
14:00+22e552960 0.0 10192164
17:00+21ene5631100 0.0 10202029
20:00+17ene4104199 0.0 1021554
10 may, mon
mon1023:00+14e41047100 0.0 1022551
02:00+11ene3853100 0.0 1023294
05:00+9ene3959100 0.0 1025244
08:00+13e4744100 0.0 1026579
11:00+16e4532100 0.0 10261461
14:00+19e352697 0.0 10251811
17:00+19e3426100 0.0 10251871
20:00+15e224266 0.0 102527
11 may, tue
tue1123:00+12se225117 0.0 102612
02:00+10sse225698 0.0 102611
05:00+9s116022 0.0 102610
08:00+15ssw2242100 0.0 1026362
11:00+19w2331100 0.0 10261541
14:00+20wsw3427100 0.0 10241873
17:00+19w4530100 0.0 10231702
20:00+16wnw484498 0.0 1023344
12 may, wed
wed1223:00+11nnw598671 0.0 1024608
02:00+9nnw51079100 0.0 1024723
05:00+7nnw411822 0.0 1026677
08:00+10n610425 0.0 1027871
11:00+14n693375 0.0 10261737
14:00+16n573282 0.0 10262393
17:00+16n563461 0.0 10262186
20:00+13nnw38445 0.0 1027278